Regional Weather Roundup
Issued by NWS

Home | Current Version | Previous Version | Graphics & Text | Print | Product List | Glossary On
Versions: 1 2 3 4 5 6 7 8 9 10 11 12 13 14 15 16 17 18 19 20 21 22 23 24 25 26 27 28 29 30 31 32 33 34 35 36 37 38 39 40 41 42 43 44 45 46 47 48 49 50
000
ASUS43 KMPX 230410
RWRMN
WEATHER ROUNDUP FOR MINNESOTA
NATIONAL WEATHER SERVICE TWIN CITIES/CHANHASSEN MN
1100 PM CDT TUE AUG 22 2017


NOTE: "FAIR" INDICATES FEW OR NO CLOUDS BELOW 12,000 FEET WITH NO
SIGNIFICANT WEATHER AND/OR OBSTRUCTIONS TO VISIBILITY. N/A MEANS
CURRENT SKY AND/OR WEATHER CONDITIONS ARE NOT AVAILABLE.

MNZ060>063-068>070-230500-
   Twin Cities Metro

CITY           SKY/WX    TMP DP  RH WIND       PRES   REMARKS
TWIN CITIES    CLEAR     64  49  57 W8        30.04S
ST PAUL        CLEAR     63  50  62 W8        30.04R
CRYSTAL        CLEAR     63  47  55 W8        30.03S
BLAINE         CLEAR     61  50  67 W8        30.04R
LAKEVILLE      CLEAR     57  52  82 W5        30.06R
EDEN PRAIRIE   CLEAR     62  51  67 W6        30.04S
SOUTH ST PAUL  CLEAR     63  49  61 W7        30.04R
LAKE ELMO      FAIR      59  50  72 W6        30.04S
$$
MNZ001>005-007-008-013>017-022>024-027-028-230500-
   Northwest Minnesota

CITY           SKY/WX    TMP DP  RH WIND       PRES   REMARKS
BEMIDJI        CLEAR     54  50  87 W6        30.06R
HALLOCK        CLEAR     52  46  82 N3        30.07S
ROSEAU         PTCLDY    57  54  88 NW5       30.06R
WARROAD        CLEAR     54  50  87 NW3       30.06R
THIEF RVR FALL CLEAR     55  48  77 N3        30.09R
CROOKSTON      CLEAR     54  46  76 CALM      30.08S
FOSSTON        CLEAR     48  43  81 CALM      30.08S
DETROIT LAKES  CLEAR     57  46  67 NW5       30.10R
MOORHEAD       CLEAR     59  46  63 CALM      30.09S
PARK RAPIDS    CLEAR     54  48  80 NW6       30.07R
MAHNOMEN       FAIR      53  46  77 CALM      30.08R
$$
MNZ006-009>011-018-025>026-230500-
   North Central Minnesota

CITY           SKY/WX    TMP DP  RH WIND       PRES   REMARKS
BAUDETTE       MOCLDY    56  50  80 N5        30.04R
FLAG ISLAND    PTCLDY    61  48  63 N7        30.03S
INTL FALLS     CLEAR     51  47  86 NW6       30.02R
WASKISH        CLEAR     59  52  77 NW7       30.05R
BIG FORK       PTCLDY    52  50  93 CALM      30.03S
LONGVILLE      CLEAR     61  52  72 NW3       30.05R
GRAND RAPIDS   PTCLDY    55  52  89 CALM      30.05R
CRANE LAKE     PTCLDY    52  50  93 CALM      30.01R
ORR            PTCLDY    55  48  76 NW3       29.99R
COOK           MOCLDY    54  52  94 W3        30.01R
WALKER         FAIR      51  49  93 W5        30.06R
$$
MNZ012-019>021-037-230500-
   Northeast Minnesota

CITY           SKY/WX    TMP DP  RH WIND       PRES   REMARKS
DULUTH         PTCLDY    54  52  93 NW8       30.00R
ELY            CLOUDY    54  52  94 NW5       29.99R
HIBBING        CLEAR     54  49  83 NW9       30.01R
EVELETH        PTCLDY    58  49  73 NW6       30.01R
DULUTH HARBOR  CLEAR     63  55  77 W13       29.99S
TWO HARBORS    CLEAR     57  52  82 NW3       29.96S
SILVER BAY     CLEAR     55  54  94 NW3       29.95S
GRAND MARAIS     N/A     58  52  80 CALM      29.90S
G MARAIS ARPRT CLEAR     52  46  82 NW6       29.94R
$$
MNZ029>031-032-039>041-046>048-054>057-064-230500-
   West Central Minnesota

CITY           SKY/WX    TMP DP  RH WIND       PRES   REMARKS
FERGUS FALLS   CLEAR     54  50  87 CALM      30.10R
WHEATON        CLEAR     55  48  76 W6        30.12R
MORRIS         CLEAR     55  50  82 W7        30.10R
ALEXANDRIA     CLEAR     57  50  77 W5        30.11R
ELBOW LAKE     FAIR      56  51  82 CALM      30.11R
WADENA         CLEAR     55  46  71 W3        30.07S
GLENWOOD       CLEAR     55  48  76 W5        30.10R
APPLETON       CLEAR     54  48  82 W6        30.10S
BENSON         CLEAR     54  48  82 NW3       30.12R
ORTONVILLE     CLEAR     57  52  82 MISG      30.12R
MADISON        CLEAR     57  54  88 W6        30.12R
WILLMAR        FAIR      57  52  82 W5        30.11R
$$
MNZ033>034-036-042>043-049>051-058-059-230500-
   Central Minnesota

CITY           SKY/WX    TMP DP  RH WIND       PRES   REMARKS
ST CLOUD       CLEAR     58  50  75 W7        30.06R
SAUK CENTRE    FAIR      56  50  80 CALM      30.09R
PAYNESVILLE    CLEAR     53  50  90 W5        30.09S
AITKIN         CLEAR     55  48  76 CALM      30.03R
PINE RIVER     CLEAR     57  48  72 NW3       30.08S
BRAINERD       CLEAR     60  47  61 W5        30.05R
STAPLES        CLEAR     54  46  76 CALM      30.07R
LONG PRAIRIE   FAIR      59  46  63 W7        30.09R
LITTLE FALLS   CLEAR     52  46  82 CALM      30.07R
LITCHFIELD     CLEAR     61  54  77 W6        30.09R
BUFFALO        CLEAR     60  50  68 W6        30.07R
MAPLE LAKE     CLEAR     60  52  74 W3        30.07S
HUTCHINSON     CLEAR     56  53  89 W5        30.09S
$$
MNZ037-044-045-052-053-230500-
   East Central Minnesota

CITY           SKY/WX    TMP DP  RH WIND       PRES   REMARKS
PRINCETON      CLEAR     57  50  77 W5        30.05R
MORA           CLEAR     54  46  76 NW3       30.05R
CAMBRIDGE      CLEAR     61  48  63 W3        30.04R
RUSH CITY      MOCLDY    56  49  76 NW3       30.03R
MOOSE LAKE     CLEAR     52  50  93 N6        30.01R
HINCKLEY       FAIR      59  50  72 NW5       30.02R
CLOQUET        CLEAR     55  48  76 W6        30.01S
MCGREGOR       CLEAR     55  50  82 NW3       30.04R
$$
MNZ071>073-080-081-089-090-097-098-230500-
   Southwest Minnesota

CITY           SKY/WX    TMP DP  RH WIND       PRES   REMARKS
MONTEVIDEO     CLEAR     57  48  72 W6        30.11S
GRANITE FALLS  CLEAR     55  53  94 W5        30.13R
CANBY          CLEAR     57  51  78 CALM      30.14R
MARSHALL       CLEAR     55  51  86 W6        30.13R
REDWOOD FALLS  CLEAR     58  50  75 W6        30.10R
OLIVIA         CLEAR     55  52  88 W5        30.09S
PIPESTONE      CLEAR     57  52  82 CALM      30.15R
WINDOM         CLEAR     55  52  88 CALM      30.14R
WORTHINGTON    CLEAR     55  51  86 CALM      30.15R
JACKSON        CLEAR     55  50  82 CALM      30.14R
TRACY          CLEAR     59  53  81 W7        30.14R
SLAYTON        CLEAR     54  47  76 NW3       30.15R
$$
MNZ065>067-074>077-082>085-091>093-230500-
   South Central Minnesota

CITY           SKY/WX    TMP DP  RH WIND       PRES   REMARKS
MANKATO        CLEAR     58  52  80 W6        30.09S
NEW ULM        CLEAR     54  50  87 W7        30.10R
ST JAMES       CLEAR     55  52  88 SW3       30.12S
FAIRMONT       CLEAR     57  52  83 W5        30.12R
GLENCOE        CLEAR     60  55  83 W5        30.07S
FARIBAULT      CLEAR     61  52  72 W7        30.08R
OWATONNA       CLEAR     54  52  94 SW6       30.08S
WASECA         CLEAR     52  48  87 SW3       30.10R
ALBERT LEA     CLEAR     61  54  77 W3        30.10R
$$
MNZ078>079-086>088-094>096-230500-
   Southeast Minnesota

CITY           SKY/WX    TMP DP  RH WIND       PRES   REMARKS
ROCHESTER      CLEAR     54  50  86 W9        30.07S
RED WING       CLEAR     57  50  77 CALM      30.03R
STANTON        CLEAR     59  51  74 W3        30.04S
DODGE CENTER   CLEAR     54  48  82 W7        30.08R
WINONA         CLEAR     59  52  77 NW5       30.04R
AUSTIN         CLEAR     57  50  77 W6        30.09R
PRESTON        CLEAR     55  49  80 W8        30.07S
$$
ABBREVIATIONS USED IN REMARKS
   TC - TEMPERATURES IN CELSIUS
  WCI - WIND CHILL INDEX
   HX - HEAT INDEX
  VSB - VISIBILITY
$$



USA.gov is the U.S. government's official web portal to all federal, state and local government web resources and services.